[[{"header":{"parameterUnit":"m.s-1","parameterCategory":1,"la1":30.2991,"la2":30.254,"lo1":-89.0895,"lo2":-89.0444,"dy":0.0017,"dx":0.0017,"nx":28,"ny":28,"refTime":"2024-09-04T09:00:00:Z","depth":0,"parameterNumber":2,"parameterNumberName":"U-component_of_WINDS"},"data":[0,0,0,0,0,0,0,0,0,0,0,0,0,0,0,0,0,0,0,0,0,0,0,0,0,0,0,0,0,0,0,0,0,0,0,0,0,0,0,0,0,0,0,0,0,0,0,0,0,0,0,0,0,0,0,0,0,0,-6.0767,-6.0767,0,-6.0825,-6.0825,-6.0826,-6.0646,-6.0641,-6.0635,-6.063,-6.0692,-6.0698,-6.0705,0,0,0,0,0,0,0,0,0,0,0,0,0,-6.0502,-6.0508,-6.0767,-6.0767,-6.0768,-6.0825,-6.0825,-6.0826,-6.0647,-6.0641,-6.0634,-6.0628,-6.069,-6.0697,-6.0706,0,0,0,0,0,0,0,0,0,0,0,0,0,-6.0594,-6.051,-6.0767,-6.0686,-6.0679,-6.0824,-6.0825,-6.0826,-6.0649,-6.064,-6.0632,-6.0625,-6.0687,-6.0697,-6.0707,-6.0934,0,0,-6.0738,-6.0742,0,0,0,0,0,0,0,0,-6.0589,-6.0604,-6.0697,-6.0691,-6.0684,-6.072,-6.0754,-6.0862,-6.0651,-6.066,-6.063,-6.0621,-6.0708,-6.0716,-6.0745,-6.0936,-6.0939,-6.0738,-6.0745,-6.0749,-6.0752,0,0,0,0,0,0,0,-6.0583,-6.0601,-6.0789,-6.0698,-6.0691,-6.0647,-6.0651,-6.0774,-6.073,-6.0659,-6.0646,-6.0655,-6.0703,-6.0735,-6.0745,-6.094,-6.0738,-6.0747,-6.0753,-6.0757,-6.1319,-6.1328,0,0,0,0,0,0,-6.0587,-6.0597,-6.0788,-6.0791,-6.0615,-6.0658,-6.0663,-6.0717,-6.0728,-6.0721,-6.0662,-6.0647,-6.0722,-6.0733,-6.0746,-6.1011,-6.0749,-6.0758,-6.0764,-6.131,-6.1321,-6.1331,0,0,0,0,0,0,-6.0582,-6.0606,-6.0785,-6.069,-6.071,-6.0671,-6.0734,-6.0722,-6.0754,-6.073,-6.0721,-6.0703,-6.0716,-6.0732,-6.0888,-6.1011,-6.0763,-6.0772,-6.13,-6.1314,-6.1326,-6.1544,0,0,0,0,0,0,-6.0575,-6.0605,-6.0691,-6.0694,-6.0716,-6.0926,-6.0741,-6.0729,-6.0772,-6.0752,-6.0767,-6.0761,-6.0711,-6.0874,-6.0898,-6.102,-6.078,-6.1289,-6.1306,-6.1322,-6.1525,-6.1563,-6.1595,0,0,0,0,0,-6.0566,-6.075,-6.0696,-6.072,-6.0822,-6.0934,-6.0946,-6.0884,-6.0783,-6.0868,-6.0853,-6.0761,-6.0994,-6.0891,-6.0917,-6.1044,-6.1281,-6.1301,-6.132,-6.151,-6.1555,-6.1594,0,0,0,0,0,0,-6.0764,-6.0749,-6.0689,-6.0879,-6.0909,-6.0903,-6.1009,-6.0935,-6.0994,-6.0973,-6.0894,-6.0899,-6.1069,-6.1072,-6.0958,-6.1263,-6.112,-6.1146,-6.1255,-6.1298,-6.1332,-6.1327,-6.0788,0,0,0,0,0,-6.0829,-6.0921,-6.0904,-6.1073,-6.1091,-6.1049,-6.1095,-6.1044,-6.1072,-6.1084,-6.1079,-6.1111,-6.119,-6.1244,-6.1317,-6.1525,-6.1525,-6.1626,-6.166,-6.1689,-6.1712,-6.1821,-6.1865,-6.1396,-6.1396,-6.1396,0,0,-6.0966,-6.0969,-6.1032,-6.1113,-6.113,-6.1226,-6.106,-6.117,-6.124,-6.1101,-6.1246,-6.1245,-6.1274,-6.1457,-6.1537,-6.1465,-6.1842,-6.1714,-6.1737,-6.1745,-6.1846,-6.189,-6.193,-6.141,-6.1407,-6.1405,0,0,-6.1263,-6.1276,-6.1417,-6.1438,-6.1465,-6.1436,-6.147,-6.1476,-6.1469,-6.1614,-6.1511,-6.1595,-6.1734,-6.1759,-6.179,-6.2097,-6.2014,-6.2123,-6.2304,-6.2411,-6.2448,-6.248,-6.2588,-6.2628,-6.2146,-6.2147,-6.2147,0,-6.1429,-6.157,-6.15,-6.1616,-6.1654,-6.1532,-6.1675,-6.1698,-6.1749,-6.1779,-6.1697,-6.1868,-6.188,-6.2066,-6.2141,-6.2171,-6.2207,-6.212,-6.2448,-6.248,-6.2509,-6.2611,-6.2652,-6.216,-6.2158,-6.2157,-6.2156,0,-6.1772,-6.1871,-6.1983,-6.2033,-6.2084,-6.2214,-6.2164,-6.2224,-6.217,-6.2149,-6.2298,-6.2307,-6.2379,-6.2419,-6.2368,-6.2599,-6.2552,-6.2462,-6.2315,-6.2568,-6.2662,-6.2701,-6.2178,-6.2174,-6.217,-6.2167,0,0,-6.2194,-6.2204,-6.2246,-6.2267,-6.2289,-6.2364,-6.2488,-6.2557,-6.261,-6.2649,-6.275,-6.2872,-6.2787,-6.2822,-6.2772,-6.2867,-6.3108,-6.2763,-6.2763,-6.2826,-6.3361,-6.3428,-6.3475,-6.3054,-6.3061,-6.3067,-6.3358,0,-6.2485,-6.2695,-6.2636,-6.2847,-6.2938,-6.2823,-6.2931,-6.2956,-6.294,-6.3015,-6.2997,-6.3083,-6.2966,-6.2986,-6.3075,-6.306,-6.3214,-6.3038,-6.3146,-6.3151,-6.3141,-6.3524,-6.3596,-6.387,-6.3394,-6.3401,-6.3405,0,-6.2852,-6.2904,-6.3125,-6.313,-6.3166,-6.3264,-6.3321,-6.3395,-6.3421,-6.3403,-6.3443,-6.3374,-6.3495,-6.335,-6.3516,-6.3398,-6.3439,-6.3439,-6.3448,-6.3454,-6.3292,-6.3539,-6.3956,-6.3996,-6.3463,-6.3458,-6.3454,0,-6.3135,-6.3261,-6.3408,-6.343,-6.3441,-6.3513,-6.3521,-6.3539,-6.3584,-6.3635,-6.3663,-6.3729,-6.3765,-6.3818,-6.3768,-6.3667,-6.3942,-6.3793,-6.393,-6.3931,-6.3991,-6.3987,-6.4419,-6.4022,-6.4021,-6.402,-6.4019,0,-6.3465,-6.3604,-6.3535,-6.3626,-6.3778,-6.3709,-6.3862,-6.3857,-6.3874,-6.3961,-6.3868,-6.3952,-6.3882,-6.3961,-6.3924,-6.4066,-6.4084,-6.4072,-6.406,-6.4079,-6.4081,-6.4104,-6.4083,-6.4031,-6.4029,-6.4027,-6.4025,0,-6.3806,-6.3766,-6.3919,-6.3917,-6.392,-6.4032,-6.4029,-6.4113,-6.4091,-6.4203,-6.4225,-6.419,-6.4278,-6.4234,-6.4326,-6.43,-6.4484,-6.4447,-6.4475,-6.4464,-6.4603,-6.459,-6.5062,-6.512,-6.4688,-6.4692,-6.4696,0,-6.4018,-6.4121,-6.413,-6.4182,-6.4196,-6.4281,-6.4326,-6.4263,-6.4314,-6.4352,-6.4431,-6.451,-6.457,-6.4715,-6.4698,-6.4767,-6.473,-6.4891,-6.474,-6.4756,-6.473,-6.4724,-6.4733,-6.4921,-6.4926,-6.493,-6.4934,0,-6.4397,-6.4373,-6.4441,-6.4504,-6.456,-6.4606,-6.4644,-6.4692,-6.463,-6.4692,-6.478,-6.4826,-6.4919,-6.4999,-6.5059,-6.5067,-6.4991,-6.4982,-6.5016,-6.5036,-6.5047,-6.5041,-6.4555,-6.497,-6.4967,-6.4964,-6.4962,-6.4961,-6.4678,-6.4765,-6.4784,-6.4864,-6.4886,-6.4924,-6.5002,-6.4989,-6.5061,-6.513,-6.5089,-6.5192,-6.5216,-6.5288,-6.5307,-6.5387,-6.5322,-6.5374,-6.5386,-6.5399,-6.5417,-6.5036,-6.5398,-6.5397,-6.5396,-6.5395,-6.5394,0,-6.5051,-6.5058,-6.5132,-6.5188,-6.5251,-6.5173,-6.5211,-6.5269,-6.536,-6.5388,-6.5449,-6.555,-6.5626,-6.5616,-6.5686,-6.5752,-6.5718,-6.5772,-6.5765,-6.5768,-6.5471,-6.5433,-6.5798,-6.5798,-6.5798,-6.5798,-6.5798,-6.5797,-6.5252,-6.5394,-6.5372,-6.5523,-6.5529,-6.5628,-6.5656,-6.5691,-6.5712,-6.5829,-6.5892,-6.5884,-6.5897,-6.5967,-6.6034,-6.6029,-6.6059,-6.6125,-6.6108,-6.583,-6.5789,-6.5751,-6.5715,-6.6133,-6.6133,-6.6397,-6.64,-6.6402]},{"header":{"parameterUnit":"m.s-1","parameterCategory":1,"la1":30.2991,"la2":30.254,"lo1":-89.0895,"lo2":-89.0444,"dy":0.0017,"dx":0.0017,"nx":28,"ny":28,"refTime":"2024-09-04T09:00:00:Z","depth":0,"parameterNumber":3,"parameterNumberName":"V-component_of_WINDS"},"data":[0,0,0,0,0,0,0,0,0,0,0,0,0,0,0,0,0,0,0,0,0,0,0,0,0,0,0,0,0,0,0,0,0,0,0,0,0,0,0,0,0,0,0,0,0,0,0,0,0,0,0,0,0,0,0,0,0,0,0.2924,0.2923,0,0.2801,0.2799,0.2798,0.2669,0.2667,0.2665,0.2663,0.2536,0.2535,0.2533,0,0,0,0,0,0,0,0,0,0,0,0,0,0.3049,0.3048,0.2924,0.2923,0.2921,0.2801,0.2799,0.2797,0.2669,0.2667,0.2664,0.2662,0.2537,0.2535,0.2533,0,0,0,0,0,0,0,0,0,0,0,0,0,0.2967,0.3047,0.2925,0.2843,0.2834,0.2801,0.2799,0.2797,0.2669,0.2667,0.2664,0.2661,0.2538,0.2535,0.2533,0.2571,0,0,0.2525,0.2524,0,0,0,0,0,0,0,0,0.2972,0.2963,0.2856,0.2848,0.2839,0.2747,0.2796,0.2721,0.267,0.2732,0.2663,0.266,0.2609,0.26,0.2583,0.2565,0.2559,0.2525,0.2523,0.2522,0.2521,0,0,0,0,0,0,0,0.2978,0.2967,0.2875,0.2855,0.2844,0.2812,0.2797,0.2782,0.2687,0.2726,0.2717,0.2704,0.2603,0.2586,0.2579,0.2558,0.2525,0.2522,0.2521,0.252,0.2564,0.2567,0,0,0,0,0,0,0.2996,0.2973,0.2879,0.2872,0.29,0.2812,0.2796,0.2779,0.2687,0.267,0.2706,0.2698,0.2591,0.2582,0.2574,0.2612,0.2522,0.252,0.2518,0.2562,0.2565,0.2568,0,0,0,0,0,0,0.2999,0.2989,0.2884,0.292,0.2904,0.2813,0.2795,0.2778,0.276,0.2671,0.2654,0.2705,0.2589,0.2578,0.2572,0.2606,0.2519,0.2516,0.2558,0.2563,0.2566,0.269,0,0,0,0,0,0,0.3003,0.2991,0.3004,0.2921,0.2903,0.2885,0.2797,0.2778,0.2756,0.2745,0.2666,0.2651,0.2586,0.2577,0.257,0.2601,0.2514,0.2555,0.256,0.2565,0.2682,0.2698,0.2711,0,0,0,0,0,0.3008,0.3044,0.3006,0.2995,0.2918,0.2888,0.2877,0.2802,0.276,0.2772,0.2715,0.2653,0.2604,0.2578,0.2569,0.2599,0.2552,0.2559,0.2565,0.2676,0.2695,0.271,0,0,0,0,0,0,0.3134,0.3032,0.2988,0.2998,0.2953,0.2866,0.288,0.2824,0.2789,0.278,0.2688,0.2671,0.2677,0.2637,0.261,0.2631,0.2569,0.2574,0.2657,0.2674,0.2688,0.2697,0.2512,0,0,0,0,0,0.3163,0.3147,0.3058,0.3076,0.3055,0.2972,0.2956,0.2902,0.2851,0.2831,0.2773,0.2727,0.27,0.2685,0.2656,0.2676,0.2657,0.2693,0.2707,0.2719,0.2724,0.2732,0.2747,0.2588,0.2588,0.2588,0,0,0.3222,0.3165,0.316,0.31,0.3058,0.3044,0.2956,0.2945,0.2933,0.2829,0.2821,0.2777,0.2719,0.2727,0.2727,0.2694,0.2764,0.2727,0.2737,0.2735,0.274,0.2755,0.2768,0.2592,0.2591,0.2591,0,0,0.3323,0.3278,0.3287,0.3248,0.3186,0.313,0.3133,0.3054,0.3021,0.3012,0.2933,0.2918,0.2875,0.2836,0.2811,0.2898,0.284,0.2891,0.2965,0.2974,0.2986,0.2997,0.3028,0.304,0.2896,0.2897,0.2897,0,0.3405,0.338,0.3299,0.3293,0.3269,0.3174,0.3183,0.3148,0.308,0.3065,0.3029,0.2973,0.2926,0.2924,0.2945,0.2928,0.2928,0.29,0.2991,0.3001,0.301,0.3038,0.305,0.2903,0.2903,0.2902,0.2901,0,0.3484,0.3468,0.3483,0.342,0.3397,0.3399,0.3318,0.3305,0.3253,0.3202,0.3193,0.3134,0.3092,0.3087,0.3036,0.3077,0.3059,0.3008,0.2944,0.3033,0.3058,0.3069,0.2913,0.2911,0.2909,0.2907,0,0,0.366,0.3553,0.356,0.353,0.3455,0.3441,0.3438,0.3396,0.3387,0.3343,0.3339,0.3304,0.3257,0.3229,0.3173,0.318,0.3253,0.3128,0.3126,0.3154,0.3295,0.3334,0.3348,0.3214,0.3216,0.3217,0.33,0,0.3748,0.3737,0.3665,0.3675,0.3659,0.3569,0.3566,0.352,0.3472,0.3452,0.3398,0.3375,0.3314,0.3297,0.33,0.3244,0.328,0.3237,0.3208,0.3208,0.3226,0.3361,0.3401,0.3482,0.3309,0.3311,0.3312,0,0.385,0.3812,0.3821,0.3746,0.3737,0.3736,0.3692,0.3674,0.362,0.3584,0.3553,0.349,0.3481,0.3421,0.3408,0.3381,0.3364,0.3335,0.3336,0.3331,0.3266,0.3359,0.3506,0.3519,0.3327,0.3325,0.3324,0,0.3978,0.393,0.3929,0.3906,0.3819,0.382,0.3784,0.3727,0.3707,0.3668,0.3654,0.3615,0.3594,0.3566,0.3494,0.3457,0.349,0.3423,0.346,0.3462,0.3471,0.3471,0.3618,0.3461,0.3461,0.346,0.346,0,0.4084,0.4093,0.3985,0.3985,0.3992,0.3908,0.3918,0.3873,0.3823,0.3812,0.3732,0.3723,0.3629,0.361,0.3553,0.3551,0.3542,0.3513,0.3498,0.352,0.3524,0.3509,0.3501,0.3463,0.3463,0.3462,0.3462,0,0.4228,0.4157,0.4149,0.4067,0.4047,0.4056,0.3986,0.3982,0.3928,0.3916,0.3908,0.3825,0.3798,0.3723,0.3677,0.3639,0.3653,0.3625,0.3672,0.3662,0.3703,0.37,0.3845,0.386,0.3694,0.3696,0.3697,0,0.4301,0.4305,0.4224,0.4211,0.4178,0.4158,0.4137,0.4055,0.4036,0.3975,0.3979,0.3945,0.3914,0.3876,0.3811,0.3775,0.3745,0.3799,0.374,0.3762,0.3746,0.3747,0.3747,0.3812,0.3814,0.3816,0.3817,0,0.4437,0.4401,0.4374,0.4335,0.4312,0.4277,0.4238,0.4232,0.4139,0.4123,0.4094,0.407,0.4023,0.3991,0.3946,0.3907,0.3848,0.3836,0.3843,0.3866,0.3893,0.3879,0.3707,0.3833,0.3832,0.3831,0.383,0.3829,0.4547,0.4547,0.449,0.4462,0.4424,0.4389,0.4382,0.4328,0.4303,0.4258,0.4211,0.4188,0.4133,0.4066,0.4032,0.4013,0.3981,0.399,0.3993,0.3996,0.4007,0.3896,0.4004,0.4003,0.4003,0.4002,0.4002,0,0.4679,0.4638,0.4613,0.4561,0.454,0.4485,0.4438,0.4424,0.4405,0.4359,0.433,0.4298,0.4266,0.42,0.4162,0.4159,0.4131,0.4152,0.4152,0.4144,0.4037,0.4036,0.4176,0.4176,0.4176,0.4176,0.4176,0.4176,0.4745,0.4743,0.4701,0.4678,0.4636,0.4614,0.4592,0.4559,0.4522,0.449,0.4463,0.442,0.4365,0.4323,0.4292,0.4273,0.4263,0.4294,0.4266,0.4168,0.4151,0.4136,0.4134,0.4292,0.4293,0.4374,0.4375,0.4376]}]]